Weather History for Perryton, TX

Change the Weather History Date:

Wednesday, March 19, 2014

  Actual Average Record
Temperature  
Mean Temperature 41 °F -  
Max Temperature 57 °F 59 °F 85 °F (1978)
Min Temperature 25 °F 29 °F 11 °F (1965)
Degree Days  
Heating Degree Days 24    
Moisture  
Dew Point 21 °F    
Average Humidity 53    
Maximum Humidity 85    
Minimum Humidity 20    
Precipitation  
Precipitation 0.00 in - - ()
Sea Level Pressure  
Sea Level Pressure 30.16 in    
Wind  
Wind Speed 10 mph (WNW)    
Max Wind Speed 20 mph    
Max Gust Speed 20 mph    
Visibility 10 miles    
Events      
Averages and records for this station are not official NWS values.
T = Trace of Precipitation, MM = Missing Value Source: NWS Daily Summary

Daily Weather History Graph

Daily Weather History Graph

Search for Another Location

Airport:

Trip Planner

Search our weather history database for the weather conditions in past years. The results will help you decide how hot, cold, wet, or windy it might be!

Date:

Astronomy

Mar. 19, 2014 Rise Set
Actual Time 7:47 AM CDT 7:53 PM CDT
Civil Twilight 7:22 AM CDT 8:19 PM CDT
Nautical Twilight 6:52 AM CDT 8:49 PM CDT
Astronomical Twilight 6:21 AM CDT 9:20 PM CDT
Moon 11:08 PM CDT (3/19) 9:20 AM CDT (3/19)
Length of Visible Light 12h 57m
Length of Day
12h 06m
Waning Gibbous, 91% of the Moon is Illuminated
Mar 19
Waning Gibbous
Mar 23
Last Quarter
Mar 30
New
Apr 7
First Quarter
Apr 15
Full

Hourly Weather History & Observations

Time (CDT) Temp. Windchill Dew Point Humidity Pressure Visibility Wind Dir Wind Speed Gust Speed Precip Events Conditions
12:15 AM 32.2 °F 23.8 °F 24.4 °F 73% 30.05 in 10.0 mi NW 10.4 mph - N/A   Clear
12:35 AM 31.6 °F 23.1 °F 23.9 °F 73% 30.05 in 10.0 mi NW 10.4 mph - N/A   Clear
12:55 AM 31.1 °F 21.9 °F 24.1 °F 75% 30.06 in 10.0 mi NW 11.5 mph - N/A   Clear
1:15 AM 31.1 °F 21.9 °F 24.6 °F 77% 30.08 in 10.0 mi WNW 11.5 mph - N/A   Clear
1:35 AM 31.5 °F 20.5 °F 24.8 °F 76% 30.08 in 10.0 mi NW 16.1 mph - N/A   Clear
1:55 AM 32.0 °F 20.8 °F 25.0 °F 75% 30.07 in 10.0 mi NW 17.3 mph - N/A   Clear
2:15 AM 32.9 °F 22.0 °F 25.5 °F 74% 30.08 in 10.0 mi NW 17.3 mph - N/A   Clear
2:35 AM 32.9 °F 22.0 °F 25.5 °F 74% 30.08 in 10.0 mi NW 17.3 mph - N/A   Clear
2:55 AM 32.2 °F 20.4 °F 25.5 °F 76% 30.06 in 10.0 mi NNW 19.6 mph - N/A   Clear
3:15 AM 32.0 °F 20.8 °F 25.2 °F 76% 30.06 in 10.0 mi NNW 17.3 mph - N/A   Clear
3:35 AM 31.8 °F 21.8 °F 25.2 °F 76% 30.08 in 10.0 mi NW 13.8 mph - N/A   Clear
3:55 AM 31.6 °F 23.1 °F 25.0 °F 76% 30.09 in 10.0 mi NW 10.4 mph - N/A   Clear
4:15 AM 30.9 °F 22.2 °F 24.6 °F 77% 30.09 in 10.0 mi NW 10.4 mph - N/A   Clear
4:35 AM 30.2 °F 20.8 °F 24.3 °F 79% 30.10 in 10.0 mi NW 11.5 mph - N/A   Clear
4:55 AM 29.5 °F 19.9 °F 23.7 °F 79% 30.11 in 10.0 mi WNW 11.5 mph - N/A   Clear
5:15 AM 28.2 °F 18.3 °F 23.2 °F 81% 30.12 in 10.0 mi NW 11.5 mph - N/A   Clear
5:35 AM 27.5 °F 18.0 °F 22.8 °F 83% 30.12 in 10.0 mi WNW 10.4 mph - N/A   Clear
5:55 AM 26.6 °F 19.1 °F 22.1 °F 83% 30.14 in 10.0 mi WNW 6.9 mph - N/A   Clear
6:15 AM 26.4 °F 17.3 °F 22.5 °F 85% 30.15 in 10.0 mi WNW 9.2 mph - N/A   Clear
6:35 AM 26.6 °F 16.8 °F 22.3 °F 84% 30.15 in 10.0 mi WNW 10.4 mph - N/A   Clear
6:55 AM 26.6 °F 16.8 °F 22.1 °F 83% 30.16 in 10.0 mi WNW 10.4 mph - N/A   Clear
7:15 AM 26.2 °F 16.4 °F 21.9 °F 84% 30.17 in 10.0 mi WNW 10.4 mph - N/A   Clear
7:35 AM 25.5 °F 15.5 °F 21.6 °F 85% 30.18 in 10.0 mi WNW 10.4 mph - N/A   Clear
7:55 AM 25.5 °F 15.5 °F 21.4 °F 84% 30.19 in 10.0 mi WNW 10.4 mph - N/A   Clear
8:15 AM 26.2 °F 17.1 °F 22.1 °F 84% 30.21 in 10.0 mi WNW 9.2 mph - N/A   Clear
8:35 AM 28.4 °F 19.1 °F 23.0 °F 80% 30.22 in 10.0 mi WNW 10.4 mph - N/A   Clear
8:55 AM 30.2 °F 21.3 °F 23.5 °F 76% 30.22 in 10.0 mi NW 10.4 mph - N/A   Clear
9:15 AM 32.7 °F 24.5 °F 24.6 °F 72% 30.24 in 10.0 mi NW 10.4 mph - N/A   Clear
9:35 AM 35.2 °F 27.1 °F 25.2 °F 67% 30.24 in 10.0 mi NW 11.5 mph - N/A   Clear
9:55 AM 37.6 °F 30.0 °F 25.7 °F 62% 30.25 in 10.0 mi NNW 11.5 mph - N/A   Clear
10:15 AM 38.8 °F 32.1 °F 26.6 °F 61% 30.25 in 10.0 mi NNW 10.4 mph - N/A   Clear
10:35 AM 41.2 °F 35.0 °F 27.1 °F 57% 30.25 in 10.0 mi NNW 10.4 mph - N/A   Clear
10:55 AM 41.7 °F 36.1 °F 27.5 °F 57% 30.26 in 10.0 mi NNW 9.2 mph - N/A   Clear
11:15 AM 42.8 °F 38.6 °F 27.7 °F 55% 30.26 in 10.0 mi NNW 6.9 mph - N/A   Clear
11:35 AM 43.7 °F 40.3 °F 27.9 °F 54% 30.26 in 10.0 mi NW 5.8 mph - N/A   Clear
11:55 AM 45.5 °F 41.3 °F 27.7 °F 50% 30.26 in 10.0 mi West 8.1 mph - N/A   Clear
12:15 PM 46.0 °F 43.1 °F 26.6 °F 47% 30.25 in 10.0 mi NW 5.8 mph - N/A   Clear
12:35 PM 47.1 °F - 24.6 °F 41% 30.25 in 10.0 mi NW 4.6 mph - N/A   Clear
12:55 PM 47.8 °F - 24.4 °F 40% 30.24 in 10.0 mi North 4.6 mph - N/A   Clear
1:15 PM 49.8 °F - 23.0 °F 35% 30.24 in 10.0 mi NW 8.1 mph - N/A   Clear
1:35 PM 50.7 °F - 22.6 °F 33% 30.23 in 10.0 mi NNW 4.6 mph - N/A   Clear
1:55 PM 50.7 °F - 23.5 °F 35% 30.22 in 10.0 mi Calm Calm - N/A   Clear
2:15 PM 52.5 °F - 22.5 °F 31% 30.21 in 10.0 mi Calm Calm - N/A   Clear
2:35 PM 52.7 °F - 21.7 °F 30% 30.19 in 10.0 mi NW 8.1 mph - N/A   Clear
2:55 PM 53.6 °F - 19.8 °F 27% 30.18 in 10.0 mi WSW 5.8 mph - N/A   Clear
3:15 PM 54.5 °F - 18.1 °F 24% 30.17 in 10.0 mi NNW 5.8 mph - N/A   Clear
3:35 PM 55.0 °F - 18.5 °F 24% 30.17 in 10.0 mi NNW 4.6 mph - N/A   Clear
3:55 PM 55.8 °F - 17.1 °F 22% 30.16 in 10.0 mi WSW 12.7 mph 19.6 mph N/A   Clear
4:15 PM 56.5 °F - 17.4 °F 22% 30.16 in 10.0 mi West 12.7 mph 17.3 mph N/A   Clear
4:35 PM 56.7 °F - 16.2 °F 20% 30.15 in 10.0 mi West 6.9 mph 16.1 mph N/A   Clear
4:55 PM 55.9 °F - 17.4 °F 22% 30.14 in 10.0 mi West 8.1 mph - N/A   Clear
5:15 PM 57.0 °F - 17.6 °F 21% 30.14 in 10.0 mi WNW 8.1 mph - N/A   Clear
5:35 PM 56.7 °F - 16.3 °F 21% 30.14 in 10.0 mi Calm Calm - N/A   Clear
5:55 PM 57.2 °F - 16.3 °F 20% 30.14 in 10.0 mi WNW 4.6 mph - N/A   Clear
6:15 PM 56.7 °F - 17.8 °F 22% 30.12 in 10.0 mi SW 5.8 mph - N/A   Clear
6:35 PM 56.8 °F - 17.6 °F 22% 30.13 in 10.0 mi West 8.1 mph - N/A   Clear
6:55 PM 56.5 °F - 17.4 °F 22% 30.13 in 10.0 mi SW 10.4 mph - N/A   Clear
7:15 PM 55.4 °F - 19.4 °F 25% 30.13 in 10.0 mi SW 5.8 mph - N/A   Clear
7:35 PM 52.9 °F - 19.0 °F 26% 30.13 in 10.0 mi SW 6.9 mph - N/A   Clear
7:55 PM 50.7 °F - 17.6 °F 27% 30.13 in 10.0 mi SSW 4.6 mph - N/A   Clear
8:15 PM 48.6 °F - 17.2 °F 29% 30.13 in 10.0 mi South 6.9 mph - N/A   Clear
8:35 PM 45.0 °F 41.2 °F 15.6 °F 31% 30.12 in 10.0 mi South 6.9 mph - N/A   Clear
8:55 PM 41.0 °F 35.2 °F 13.6 °F 33% 30.13 in 10.0 mi South 9.2 mph - N/A   Clear
9:15 PM 38.8 °F 32.1 °F 13.6 °F 36% 30.14 in 10.0 mi South 10.4 mph - N/A   Clear
9:35 PM 37.6 °F 30.5 °F 14.4 °F 39% 30.14 in 10.0 mi SSE 10.4 mph - N/A   Clear
9:55 PM 36.5 °F 29.7 °F 13.8 °F 39% 30.14 in 10.0 mi South 9.2 mph - N/A   Clear
10:15 PM 35.4 °F 27.8 °F 13.6 °F 41% 30.14 in 10.0 mi South 10.4 mph - N/A   Clear
10:35 PM 34.3 °F 27.0 °F 13.5 °F 42% 30.14 in 10.0 mi South 9.2 mph - N/A   Clear
10:55 PM 34.7 °F 28.1 °F 13.8 °F 42% 30.14 in 10.0 mi South 8.1 mph - N/A   Clear
11:15 PM 33.8 °F 27.7 °F 13.5 °F 43% 30.15 in 10.0 mi South 6.9 mph - N/A   Clear
11:35 PM 33.6 °F 27.5 °F 13.1 °F 43% 30.15 in 10.0 mi South 6.9 mph - N/A   Clear
11:55 PM 32.2 °F 25.0 °F 12.4 °F 44% 30.15 in 10.0 mi South 8.1 mph - N/A   Clear